Weather History for Watsonville, CA

Change the Weather History Date:

Tuesday, April 30, 2013

  Actual Average Record
Temperature  
Mean Temperature 59 °F 57 °F  
Max Temperature 69 °F 68 °F 90 °F (2014)
Min Temperature 48 °F 46 °F 38 °F (2009)
Degree Days  
Heating Degree Days 6    
Month to date heating degree days 233  
Since 1 July heating degree days 2752  
Cooling Degree Days 0    
Month to date cooling degree days 0  
Year to date cooling degree days 0  
Growing Degree Days 8 (Base 50)    
Moisture  
Dew Point 47 °F    
Average Humidity 73    
Maximum Humidity 93    
Minimum Humidity 53    
Precipitation  
Precipitation 0.00 in - 0.78 in (1983)
Month to date precipitation 0.60  
Year to date precipitation 2.34  
Since 1 July precipitation 13.28  
Sea Level Pressure  
Sea Level Pressure 29.83 in    
Wind  
Wind Speed 4 mph (SE)    
Max Wind Speed 10 mph    
Max Gust Speed 14 mph    
Visibility 9 miles    
Events      
T = Trace of Precipitation, MM = Missing Value Source: NWS Daily Summary

Daily Weather History Graph

Daily Weather History Graph

Search for Another Location

Airport:

Trip Planner

Search our weather history database for the weather conditions in past years. The results will help you decide how hot, cold, wet, or windy it might be!

Date:

Astronomy

Apr. 30, 2013 Rise Set
Actual Time 6:13 AM PDT 7:55 PM PDT
Civil Twilight 5:45 AM PDT 8:23 PM PDT
Nautical Twilight 5:12 AM PDT 8:57 PM PDT
Astronomical Twilight 4:36 AM PDT 9:32 PM PDT
Moon 12:21 AM PDT (4/30) 10:50 AM PDT (4/30)
Length of Visible Light 14h 37m
Length of Day
13h 41m
Waning Gibbous, 69% of the Moon is Illuminated
Apr 30
Waning Gibbous
May 2
Last Quarter
May 9
New
May 17
First Quarter
May 24
Full

Hourly Weather History & Observations

Time (PDT) Temp. Dew Point Humidity Pressure Visibility Wind Dir Wind Speed Gust Speed Precip Events Conditions
12:53 AM 53.1 °F 46.9 °F 80% 29.82 in 10.0 mi Calm Calm - N/A   Clear
1:53 AM 51.1 °F 46.0 °F 83% 29.82 in 10.0 mi Calm Calm - N/A   Clear
2:53 AM 50.0 °F 46.0 °F 86% 29.82 in 10.0 mi Calm Calm - N/A   Clear
3:24 AM 48.2 °F 44.6 °F 87% 29.82 in 10.0 mi Calm Calm - N/A   Partly Cloudy
3:49 AM 48.2 °F 46.4 °F 93% 29.82 in 10.0 mi Calm Calm - N/A   Mostly Cloudy
3:53 AM 48.9 °F 45.0 °F 86% 29.82 in 10.0 mi NE 3.5 mph - N/A   Mostly Cloudy
4:36 AM 48.2 °F 46.4 °F 93% 29.82 in 9.0 mi Calm Calm - N/A   Mostly Cloudy
4:44 AM 48.2 °F 46.4 °F 93% 29.82 in 9.0 mi NNE 3.5 mph - N/A   Partly Cloudy
4:53 AM 48.9 °F 46.0 °F 90% 29.82 in 9.0 mi NE 3.5 mph - N/A   Partly Cloudy
5:53 AM 48.0 °F 45.0 °F 89% 29.83 in 9.0 mi Calm Calm - N/A   Clear
6:53 AM 48.0 °F 45.0 °F 89% 29.84 in 8.0 mi Calm Calm - N/A   Clear
7:53 AM 52.0 °F 48.0 °F 86% 29.86 in 7.0 mi Calm Calm - N/A   Clear
8:53 AM 55.9 °F 48.0 °F 75% 29.86 in 9.0 mi Variable 3.5 mph - N/A   Clear
9:53 AM 60.1 °F 48.9 °F 67% 29.86 in 10.0 mi North 3.5 mph - N/A   Clear
10:53 AM 62.1 °F 51.1 °F 67% 29.86 in 9.0 mi Variable 4.6 mph - N/A   Clear
11:53 AM 66.9 °F 52.0 °F 59% 29.85 in 10.0 mi SSE 6.9 mph - N/A   Clear
12:53 PM 66.0 °F 51.1 °F 59% 29.85 in 10.0 mi South 9.2 mph - N/A   Clear
1:53 PM 68.0 °F 51.1 °F 55% 29.84 in 10.0 mi South 6.9 mph - N/A   Clear
2:53 PM 68.0 °F 50.0 °F 52% 29.84 in 10.0 mi SSE 6.9 mph - N/A   Clear
3:53 PM 68.0 °F 50.0 °F 52% 29.82 in 10.0 mi SE 8.1 mph - N/A   Clear
4:53 PM 64.0 °F 48.0 °F 56% 29.81 in 10.0 mi SE 8.1 mph - N/A   Clear
6:53 PM 59.0 °F 46.9 °F 64% 29.82 in 9.0 mi SSE 6.9 mph - N/A   Clear
7:53 PM 55.0 °F 46.0 °F 72% 29.83 in 9.0 mi South 4.6 mph - N/A   Clear
8:53 PM 52.0 °F 45.0 °F 77% 29.84 in 9.0 mi Calm Calm - N/A   Clear
9:53 PM 52.0 °F 46.0 °F 80% 29.86 in 9.0 mi Calm Calm - N/A   Clear
10:53 PM 51.1 °F 45.0 °F 80% 29.86 in 10.0 mi NW 3.5 mph - N/A   Clear